QPF
0.05 0.02 0.01 0.01 0.01 0.04 0.09 0.06 0.06 0.04 0.02 0.02 0.01 0.00 0.00 0.00 0.01 0.01 0.02 0.05 0.08 0.10 0.09 0.08 0.07 0.05 0.06 0.06 0.05 0.04 0.05 0.04 0.06 0.06 0.07 0.09 0.08 0.07 0.05 0.05 0.05 0.05 0.06
0.03 0.02 0.01 0.01 0.01 0.04 0.07 0.05 0.03 0.02 0.02 0.01 0.00 0.00 0.00 0.01 0.01 0.02 0.01 0.03 0.05 0.06 0.08 0.09 0.08 0.07 0.07 0.08 0.07 0.06 0.06 0.05 0.06 0.07 0.07 0.07 0.05 0.03 0.03 0.04 0.04 0.05 0.06
0.01 0.01 0.01 0.02 0.02 0.02 0.03 0.03 0.02 0.01 0.01 0.01 0.01 0.00 0.00 0.01 0.02 0.02 0.02 0.02 0.03 0.04 0.07 0.10 0.09 0.08 0.08 0.09 0.10 0.10 0.08 0.07 0.06 0.07 0.07 0.04 0.04 0.04 0.04 0.03 0.04 0.04 0.05
0.00 0.01 0.01 0.01 0.01 0.01 0.01 0.01 0.01 0.01 0.01 0.01 0.00 0.00 0.01 0.01 0.02 0.02 0.02 0.02 0.02 0.03 0.05 0.09 0.10 0.10 0.11 0.12 0.14 0.11 0.09 0.09 0.08 0.07 0.06 0.04 0.04 0.03 0.04 0.04 0.05 0.04 0.04
0.00 0.00 0.00 0.00 0.00 0.00 0.01 0.01 0.01 0.01 0.01 0.01 0.01 0.01 0.01 0.01 0.01 0.02 0.02 0.02 0.02 0.03 0.05 0.06 0.06 0.06 0.10 0.12 0.12 0.11 0.11 0.10 0.10 0.09 0.05 0.04 0.04 0.04 0.05 0.05 0.05 0.04 0.04
0.00 0.00 0.00 0.00 0.00 0.00 0.00 0.00 0.00 0.00 0.01 0.01 0.01 0.01 0.01 0.01 0.01 0.01 0.01 0.02 0.04 0.04 0.04 0.03 0.01 0.02 0.04 0.07 0.10 0.11 0.10 0.10 0.10 0.06 0.05 0.05 0.04 0.04 0.05 0.06 0.06 0.04 0.03
0.00 0.00 0.00 0.00 0.00 0.00 0.00 0.00 0.00 0.00 0.00 0.01 0.01 0.01 0.01 0.01 0.01 0.01 0.02 0.04 0.06 0.05 0.02 0.01 0.01 0.00 0.02 0.05 0.07 0.08 0.09 0.09 0.08 0.07 0.06 0.05 0.04 0.03 0.03 0.03 0.06 0.03 0.03
0.00 0.00 0.00 0.00 0.00 0.00 0.00 0.00 0.00 0.01 0.00 0.00 0.01 0.01 0.01 0.01 0.02 0.03 0.03 0.05 0.05 0.04 0.02 0.01 0.01 0.01 0.03 0.04 0.08 0.10 0.12 0.11 0.10 0.07 0.04 0.04 0.03 0.03 0.02 0.02 0.03 0.03 0.03
0.00 0.00 0.00 0.00 0.00 0.00 0.00 0.00 0.00 0.00 0.00 0.00 0.01 0.01 0.01 0.01 0.02 0.04 0.03 0.03 0.03 0.02 0.02 0.01 0.00 0.01 0.02 0.03 0.03 0.02 0.04 0.03 0.04 0.04 0.03 0.02 0.02 0.03 0.03 0.03 0.03 0.03 0.03
0.00 0.00 0.00 0.00 0.00 0.00 0.00 0.00 0.00 0.00 0.00 0.00 0.01 0.01 0.01 0.01 0.02 0.04 0.04 0.03 0.03 0.02 0.01 0.01 0.00 0.01 0.01 0.01 0.01 0.01 0.01 0.01 0.01 0.01 0.01 0.02 0.03 0.03 0.03 0.03 0.03 0.02 0.02
0.00 0.00 0.00 0.00 0.00 0.00 0.01 0.00 0.00 0.00 0.00 0.00 0.01 0.02 0.01 0.01 0.01 0.01 0.02 0.02 0.02 0.02 0.01 0.01 0.00 0.00 0.01 0.01 0.01 0.01 0.01 0.01 0.01 0.01 0.01 0.01 0.02 0.02 0.02 0.02 0.02 0.03 0.02
0.01 0.00 0.00 0.00 0.00 0.00 0.01 0.01 0.01 0.00 0.00 0.01 0.01 0.01 0.01 0.02 0.02 0.01 0.01 0.01 0.02 0.01 0.01 0.01 0.00 0.00 0.00 0.00 0.00 0.00 0.01 0.01 0.00 0.00 0.01 0.01 0.02 0.02 0.02 0.02 0.02 0.03 0.03
0.02 0.01 0.01 0.00 0.00 0.00 0.00 0.01 0.01 0.01 0.01 0.01 0.01 0.02 0.02 0.02 0.03 0.02 0.01 0.01 0.01 0.00 0.00 0.00 0.00 0.00 0.01 0.01 0.01 0.00 0.01 0.01 0.00 0.01 0.01 0.01 0.02 0.02 0.02 0.02 0.03 0.04 0.04
0.04 0.03 0.01 0.01 0.00 0.00 0.00 0.01 0.01 0.01 0.01 0.02 0.02 0.02 0.02 0.03 0.03 0.03 0.02 0.01 0.01 0.00 0.00 0.00 0.00 0.00 0.00 0.01 0.01 0.01 0.01 0.00 0.00 0.00 0.01 0.01 0.01 0.01 0.01 0.01 0.02 0.03 0.03
0.03 0.02 0.02 0.02 0.01 0.01 0.00 0.00 0.00 0.01 0.01 0.01 0.02 0.01 0.01 0.02 0.03 0.03 0.03 0.03 0.02 0.01 0.01 0.01 0.00 0.00 0.00 0.01 0.01 0.00 0.01 0.01 0.01 0.01 0.01 0.00 0.01 0.01 0.01 0.01 0.00 0.01 0.02
0.02 0.02 0.02 0.02 0.02 0.02 0.02 0.01 0.01 0.01 0.01 0.01 0.01 0.01 0.00 0.01 0.02 0.04 0.04 0.03 0.03 0.02 0.01 0.01 0.00 0.00 0.00 0.00 0.00 0.00 0.01 0.01 0.01 0.01 0.01 0.01 0.01 0.00 0.00 0.00 0.00 0.01 0.02
0.02 0.02 0.02 0.02 0.02 0.02 0.02 0.02 0.01 0.01 0.01 0.00 0.01 0.01 0.01 0.01 0.01 0.03 0.04 0.03 0.02 0.01 0.01 0.00 0.00 0.00 0.00 0.00 0.00 0.00 0.00 0.00 0.00 0.00 0.00 0.00 0.00 0.00 0.00 0.00 0.00 0.00 0.01
0.02 0.02 0.02 0.02 0.02 0.02 0.02 0.01 0.01 0.01 0.01 0.01 0.01 0.01 0.01 0.01 0.01 0.01 0.02 0.02 0.01 0.01 0.00 0.00 0.00 0.00 0.00 0.00 0.00 0.00 0.00 0.00 0.00 0.00 0.00 0.00 0.00 0.00 0.00 0.00 0.00 0.00 0.00
0.01 0.01 0.02 0.02 0.02 0.02 0.02 0.02 0.02 0.02 0.02 0.01 0.01 0.01 0.01 0.01 0.01 0.01 0.01 0.01 0.01 0.01 0.00 0.00 0.00 0.00 0.00 0.00 0.00 0.00 0.00 0.00 0.00 0.00 0.00 0.00 0.00 0.00 0.00 0.00 0.00 0.00 0.00
0.01 0.00 0.00 0.01 0.02 0.03 0.03 0.03 0.02 0.02 0.03 0.02 0.01 0.01 0.01 0.01 0.01 0.01 0.01 0.01 0.01 0.00 0.00 0.00 0.00 0.01 0.00 0.00 0.00 0.00 0.00 0.00 0.00 0.00 0.00 0.00 0.00 0.00 0.00 0.00 0.00 0.00 0.00
0.01 0.00 0.00 0.00 0.01 0.02 0.02 0.02 0.02 0.02 0.02 0.02 0.02 0.01 0.01 0.01 0.01 0.01 0.01 0.01 0.01 0.00 0.00 0.00 0.01 0.01 0.01 0.00 0.00 0.00 0.00 0.00 0.00 0.00 0.00 0.00 0.00 0.00 0.00 0.00 0.00 0.00 0.00
0.01 0.01 0.00 0.00 0.00 0.01 0.01 0.02 0.02 0.03 0.02 0.02 0.02 0.01 0.01 0.01 0.01 0.01 0.01 0.01 0.01 0.01 0.00 0.00 0.01 0.01 0.02 0.01 0.00 0.00 0.00 0.00 0.00 0.00 0.00 0.00 0.00 0.00 0.00 0.00 0.00 0.00 0.00
0.02 0.01 0.01 0.01 0.01 0.01 0.01 0.01 0.02 0.03 0.03 0.02 0.02 0.01 0.01 0.01 0.01 0.01 0.01 0.01 0.01 0.01 0.00 0.00 0.01 0.02 0.02 0.02 0.01 0.00 0.00 0.00 0.00 0.00 0.00 0.00 0.00 0.00 0.00 0.00 0.00 0.00 0.00
0.02 0.02 0.02 0.01 0.01 0.01 0.01 0.01 0.01 0.02 0.02 0.02 0.02 0.01 0.01 0.01 0.01 0.01 0.01 0.01 0.00 0.01 0.01 0.00 0.00 0.01 0.02 0.02 0.01 0.00 0.00 0.00 0.00 0.00 0.00 0.00 0.00 0.00 0.00 0.00 0.00 0.00 0.00
0.01 0.01 0.02 0.01 0.01 0.01 0.02 0.01 0.01 0.01 0.02 0.02 0.02 0.02 0.01 0.01 0.01 0.00 0.00 0.00 0.00 0.00 0.01 0.01 0.01 0.01 0.02 0.02 0.01 0.00 0.00 0.00 0.00 0.00 0.00 0.00 0.00 0.00 0.00 0.00 0.00 0.00 0.01
0.01 0.01 0.01 0.01 0.01 0.02 0.02 0.02 0.02 0.02 0.02 0.02 0.02 0.02 0.01 0.01 0.01 0.01 0.00 0.00 0.00 0.00 0.00 0.01 0.01 0.01 0.02 0.02 0.01 0.00 0.00 0.00 0.00 0.00 0.00 0.00 0.00 0.00 0.00 0.00 0.00 0.00 0.00
MSLP
1017.04 1017.16 1017.26 1017.36 1017.45 1017.55 1017.68 1017.82 1018.00 1018.18 1018.36 1018.52 1018.62 1018.66 1018.60 1018.45 1018.21 1017.88 1017.49 1017.08 1016.67 1016.29 1015.99 1015.78 1015.68 1015.69 1015.81 1016.00 1016.24 1016.51 1016.78 1017.03 1017.25 1017.44 1017.61 1017.76 1017.91 1018.05 1018.18 1018.31 1018.42 1018.51 1018.57
1017.29 1017.43 1017.59 1017.75 1017.92 1018.11 1018.31 1018.52 1018.73 1018.95 1019.14 1019.29 1019.39 1019.42 1019.36 1019.21 1018.97 1018.65 1018.26 1017.83 1017.40 1016.99 1016.64 1016.38 1016.22 1016.17 1016.22 1016.37 1016.57 1016.81 1017.07 1017.33 1017.57 1017.79 1017.99 1018.18 1018.35 1018.52 1018.68 1018.82 1018.94 1019.04 1019.11
1017.50 1017.68 1017.89 1018.13 1018.39 1018.67 1018.94 1019.21 1019.47 1019.71 1019.90 1020.06 1020.16 1020.19 1020.14 1020.02 1019.81 1019.52 1019.16 1018.75 1018.32 1017.90 1017.51 1017.20 1016.97 1016.85 1016.82 1016.89 1017.03 1017.23 1017.46 1017.70 1017.94 1018.18 1018.40 1018.62 1018.83 1019.02 1019.20 1019.37 1019.52 1019.64 1019.73
1017.72 1017.92 1018.19 1018.51 1018.86 1019.22 1019.56 1019.88 1020.17 1020.41 1020.61 1020.76 1020.86 1020.91 1020.91 1020.83 1020.69 1020.46 1020.17 1019.81 1019.41 1018.99 1018.59 1018.22 1017.93 1017.72 1017.60 1017.58 1017.65 1017.78 1017.96 1018.17 1018.41 1018.65 1018.89 1019.12 1019.36 1019.58 1019.79 1019.98 1020.15 1020.29 1020.41
1017.97 1018.20 1018.52 1018.91 1019.32 1019.74 1020.14 1020.49 1020.78 1021.03 1021.22 1021.36 1021.48 1021.56 1021.61 1021.62 1021.57 1021.44 1021.25 1020.97 1020.62 1020.23 1019.82 1019.42 1019.06 1018.76 1018.56 1018.45 1018.43 1018.49 1018.61 1018.79 1019.00 1019.23 1019.48 1019.73 1019.97 1020.21 1020.44 1020.65 1020.84 1021.00 1021.14
1018.28 1018.53 1018.89 1019.31 1019.77 1020.23 1020.64 1021.00 1021.29 1021.51 1021.69 1021.83 1021.97 1022.10 1022.23 1022.34 1022.41 1022.42 1022.34 1022.17 1021.90 1021.56 1021.15 1020.73 1020.32 1019.95 1019.66 1019.47 1019.36 1019.35 1019.43 1019.56 1019.75 1019.97 1020.20 1020.45 1020.70 1020.94 1021.17 1021.38 1021.57 1021.74 1021.90
1018.67 1018.92 1019.28 1019.72 1020.19 1020.65 1021.06 1021.39 1021.66 1021.85 1022.01 1022.17 1022.34 1022.53 1022.75 1022.99 1023.20 1023.35 1023.41 1023.36 1023.19 1022.90 1022.53 1022.09 1021.65 1021.23 1020.88 1020.61 1020.44 1020.37 1020.39 1020.49 1020.65 1020.84 1021.06 1021.29 1021.52 1021.75 1021.96 1022.16 1022.34 1022.50 1022.64
1019.11 1019.34 1019.69 1020.11 1020.56 1021.00 1021.38 1021.68 1021.90 1022.07 1022.22 1022.38 1022.59 1022.86 1023.18 1023.54 1023.90 1024.20 1024.40 1024.48 1024.41 1024.20 1023.86 1023.44 1022.98 1022.54 1022.14 1021.82 1021.60 1021.49 1021.47 1021.53 1021.66 1021.82 1022.02 1022.22 1022.42 1022.61 1022.79 1022.95 1023.10 1023.24 1023.36
1019.59 1019.78 1020.09 1020.48 1020.89 1021.28 1021.61 1021.86 1022.05 1022.19 1022.33 1022.51 1022.76 1023.10 1023.52 1024.00 1024.48 1024.92 1025.26 1025.45 1025.49 1025.35 1025.07 1024.69 1024.24 1023.79 1023.38 1023.04 1022.79 1022.64 1022.59 1022.62 1022.72 1022.85 1023.01 1023.18 1023.34 1023.49 1023.62 1023.74 1023.85 1023.94 1024.03
1020.06 1020.22 1020.48 1020.82 1021.17 1021.50 1021.78 1021.99 1022.14 1022.25 1022.39 1022.58 1022.87 1023.27 1023.78 1024.35 1024.94 1025.49 1025.93 1026.23 1026.36 1026.30 1026.10 1025.76 1025.36 1024.93 1024.53 1024.19 1023.93 1023.76 1023.68 1023.69 1023.75 1023.85 1023.98 1024.10 1024.22 1024.33 1024.42 1024.49 1024.55 1024.61 1024.66
1020.52 1020.63 1020.85 1021.12 1021.42 1021.70 1021.93 1022.10 1022.21 1022.32 1022.45 1022.66 1022.98 1023.42 1023.97 1024.60 1025.25 1025.87 1026.40 1026.77 1026.98 1027.01 1026.88 1026.62 1026.28 1025.90 1025.53 1025.21 1024.95 1024.78 1024.68 1024.66 1024.69 1024.76 1024.84 1024.94 1025.02 1025.10 1025.15 1025.19 1025.21 1025.23 1025.25
1020.94 1021.02 1021.20 1021.43 1021.67 1021.91 1022.09 1022.23 1022.33 1022.42 1022.55 1022.77 1023.09 1023.54 1024.11 1024.75 1025.43 1026.08 1026.65 1027.08 1027.35 1027.46 1027.41 1027.24 1026.98 1026.67 1026.36 1026.07 1025.84 1025.66 1025.55 1025.50 1025.50 1025.53 1025.59 1025.65 1025.72 1025.77 1025.81 1025.84 1025.84 1025.84 1025.84
1021.33 1021.40 1021.54 1021.73 1021.95 1022.15 1022.31 1022.42 1022.51 1022.60 1022.72 1022.93 1023.24 1023.68 1024.22 1024.84 1025.50 1026.14 1026.71 1027.17 1027.50 1027.67 1027.71 1027.64 1027.47 1027.25 1027.02 1026.78 1026.57 1026.40 1026.28 1026.20 1026.16 1026.17 1026.20 1026.25 1026.31 1026.36 1026.41 1026.44 1026.45 1026.45 1026.44
1021.70 1021.76 1021.89 1022.07 1022.26 1022.44 1022.58 1022.69 1022.77 1022.86 1022.98 1023.17 1023.45 1023.85 1024.33 1024.90 1025.50 1026.10 1026.65 1027.11 1027.47 1027.71 1027.84 1027.86 1027.80 1027.68 1027.53 1027.36 1027.18 1027.02 1026.88 1026.78 1026.71 1026.69 1026.70 1026.74 1026.80 1026.88 1026.95 1027.01 1027.05 1027.06 1027.05
1022.05 1022.13 1022.25 1022.42 1022.60 1022.78 1022.92 1023.03 1023.11 1023.20 1023.31 1023.48 1023.73 1024.06 1024.48 1024.96 1025.49 1026.02 1026.52 1026.97 1027.35 1027.64 1027.85 1027.97 1028.02 1028.00 1027.93 1027.82 1027.69 1027.54 1027.40 1027.27 1027.17 1027.12 1027.12 1027.16 1027.23 1027.33 1027.44 1027.54 1027.61 1027.65 1027.66
1022.39 1022.48 1022.62 1022.79 1022.97 1023.14 1023.29 1023.41 1023.50 1023.59 1023.70 1023.85 1024.05 1024.33 1024.67 1025.07 1025.50 1025.95 1026.40 1026.82 1027.20 1027.53 1027.80 1028.01 1028.16 1028.24 1028.26 1028.22 1028.12 1027.99 1027.85 1027.70 1027.58 1027.51 1027.48 1027.52 1027.60 1027.72 1027.86 1027.99 1028.10 1028.17 1028.20
1022.70 1022.82 1022.97 1023.14 1023.32 1023.50 1023.65 1023.78 1023.89 1023.99 1024.10 1024.24 1024.42 1024.64 1024.91 1025.23 1025.58 1025.95 1026.33 1026.71 1027.08 1027.43 1027.75 1028.03 1028.25 1028.42 1028.51 1028.53 1028.48 1028.37 1028.23 1028.08 1027.94 1027.84 1027.80 1027.82 1027.90 1028.03 1028.18 1028.33 1028.46 1028.55 1028.59
1022.96 1023.10 1023.26 1023.44 1023.62 1023.80 1023.96 1024.11 1024.23 1024.35 1024.47 1024.61 1024.77 1024.96 1025.18 1025.43 1025.70 1026.00 1026.32 1026.65 1026.99 1027.33 1027.68 1028.00 1028.28 1028.51 1028.67 1028.74 1028.74 1028.66 1028.53 1028.38 1028.23 1028.11 1028.05 1028.05 1028.11 1028.22 1028.36 1028.51 1028.64 1028.73 1028.77
1023.15 1023.30 1023.47 1023.65 1023.83 1024.01 1024.17 1024.33 1024.47 1024.61 1024.75 1024.90 1025.07 1025.24 1025.43 1025.63 1025.85 1026.08 1026.33 1026.60 1026.90 1027.22 1027.56 1027.90 1028.21 1028.48 1028.69 1028.81 1028.85 1028.81 1028.70 1028.56 1028.41 1028.28 1028.20 1028.17 1028.20 1028.27 1028.38 1028.50 1028.60 1028.67 1028.70
1023.24 1023.40 1023.57 1023.75 1023.92 1024.09 1024.26 1024.42 1024.57 1024.73 1024.90 1025.07 1025.25 1025.42 1025.60 1025.77 1025.95 1026.12 1026.32 1026.53 1026.77 1027.05 1027.36 1027.68 1028.00 1028.28 1028.52 1028.68 1028.76 1028.76 1028.69 1028.58 1028.44 1028.31 1028.21 1028.15 1028.14 1028.17 1028.22 1028.29 1028.35 1028.38 1028.40
1023.22 1023.39 1023.56 1023.73 1023.89 1024.05 1024.20 1024.36 1024.52 1024.70 1024.88 1025.07 1025.27 1025.46 1025.63 1025.79 1025.94 1026.07 1026.21 1026.36 1026.54 1026.76 1027.01 1027.30 1027.60 1027.88 1028.14 1028.33 1028.45 1028.50 1028.48 1028.40 1028.29 1028.18 1028.07 1027.99 1027.94 1027.92 1027.92 1027.93 1027.93 1027.93 1027.91
1023.08 1023.26 1023.44 1023.60 1023.75 1023.89 1024.03 1024.17 1024.33 1024.50 1024.69 1024.90 1025.11 1025.31 1025.49 1025.64 1025.77 1025.87 1025.95 1026.05 1026.17 1026.32 1026.51 1026.75 1027.01 1027.28 1027.54 1027.75 1027.91 1028.01 1028.04 1028.02 1027.96 1027.87 1027.78 1027.69 1027.62 1027.56 1027.51 1027.46 1027.42 1027.38 1027.33
1022.84 1023.04 1023.22 1023.37 1023.51 1023.63 1023.74 1023.86 1023.99 1024.16 1024.34 1024.55 1024.76 1024.96 1025.15 1025.30 1025.40 1025.48 1025.53 1025.57 1025.63 1025.72 1025.86 1026.04 1026.26 1026.50 1026.75 1026.98 1027.17 1027.32 1027.41 1027.45 1027.44 1027.40 1027.33 1027.26 1027.18 1027.10 1027.03 1026.95 1026.88 1026.81 1026.75
1022.51 1022.73 1022.91 1023.07 1023.19 1023.28 1023.37 1023.45 1023.55 1023.68 1023.84 1024.03 1024.23 1024.43 1024.61 1024.75 1024.85 1024.91 1024.93 1024.94 1024.95 1024.99 1025.07 1025.20 1025.38 1025.59 1025.82 1026.06 1026.28 1026.47 1026.61 1026.71 1026.76 1026.77 1026.75 1026.71 1026.66 1026.59 1026.51 1026.43 1026.35 1026.28 1026.22
1022.08 1022.32 1022.52 1022.68 1022.79 1022.86 1022.91 1022.96 1023.02 1023.10 1023.23 1023.38 1023.56 1023.74 1023.90 1024.04 1024.13 1024.18 1024.19 1024.17 1024.16 1024.16 1024.20 1024.29 1024.42 1024.61 1024.82 1025.06 1025.29 1025.50 1025.68 1025.83 1025.93 1026.00 1026.04 1026.05 1026.03 1026.00 1025.95 1025.90 1025.84 1025.79 1025.75
1021.57 1021.83 1022.04 1022.20 1022.30 1022.35 1022.37 1022.38 1022.39 1022.43 1022.51 1022.62 1022.76 1022.92 1023.06 1023.19 1023.27 1023.32 1023.32 1023.30 1023.27 1023.26 1023.27 1023.33 1023.43 1023.59 1023.78 1024.00 1024.23 1024.45 1024.66 1024.83 1024.98 1025.10 1025.19 1025.25 1025.28 1025.30 1025.30 1025.29 1025.28 1025.27 1025.27
Thickness
5721 5721 5720 5720 5719 5719 5718 5717 5715 5713 5712 5711 5710 5709 5708 5708 5708 5709 5710 5712 5713 5715 5715 5716 5716 5716 5716 5716 5716 5716 5716 5716 5717 5717 5717 5716 5715 5715 5715 5714 5715 5715 5715
5718 5718 5717 5716 5716 5715 5713 5712 5711 5709 5708 5706 5705 5704 5703 5703 5703 5704 5704 5706 5707 5709 5710 5710 5711 5711 5711 5712 5712 5711 5711 5711 5712 5712 5712 5711 5710 5709 5710 5709 5709 5709 5710
5716 5715 5713 5712 5712 5711 5710 5708 5706 5705 5703 5701 5700 5699 5698 5698 5698 5698 5699 5700 5701 5702 5703 5704 5705 5706 5706 5706 5706 5706 5706 5706 5706 5706 5706 5705 5704 5704 5704 5704 5704 5704 5704
5713 5712 5710 5709 5708 5707 5706 5704 5702 5700 5697 5696 5695 5694 5693 5693 5693 5693 5693 5694 5695 5695 5696 5697 5699 5700 5700 5701 5701 5701 5701 5701 5700 5700 5700 5699 5699 5699 5699 5698 5698 5698 5698
5711 5710 5708 5706 5705 5704 5702 5701 5697 5696 5693 5692 5691 5689 5688 5688 5687 5688 5688 5688 5689 5689 5690 5691 5692 5693 5694 5695 5695 5695 5696 5695 5695 5694 5694 5693 5693 5693 5693 5693 5693 5692 5692
5709 5707 5706 5704 5702 5701 5698 5697 5694 5692 5691 5689 5688 5685 5683 5683 5683 5683 5683 5683 5683 5684 5684 5685 5685 5686 5687 5688 5689 5690 5690 5690 5689 5689 5688 5688 5687 5687 5687 5687 5687 5687 5687
5706 5705 5703 5701 5700 5698 5696 5694 5691 5688 5686 5685 5683 5679 5678 5678 5678 5678 5678 5678 5678 5678 5679 5679 5679 5679 5680 5682 5682 5683 5684 5684 5684 5683 5682 5682 5681 5681 5681 5681 5681 5680 5681
5703 5702 5701 5699 5698 5695 5693 5691 5689 5685 5683 5683 5681 5676 5671 5671 5672 5673 5673 5673 5673 5673 5673 5673 5673 5674 5675 5675 5676 5677 5677 5678 5677 5677 5676 5675 5675 5675 5675 5675 5674 5674 5674
5700 5699 5698 5697 5695 5693 5690 5689 5688 5686 5681 5680 5680 5677 5671 5666 5666 5667 5667 5668 5668 5668 5668 5668 5668 5668 5669 5669 5670 5670 5671 5671 5671 5671 5670 5669 5669 5668 5668 5668 5668 5668 5668
5696 5696 5695 5694 5692 5691 5689 5687 5686 5685 5682 5678 5677 5676 5675 5672 5665 5661 5661 5662 5663 5662 5662 5663 5662 5662 5663 5663 5663 5664 5664 5664 5665 5665 5664 5664 5663 5662 5662 5662 5662 5662 5662
5693 5693 5692 5691 5690 5688 5687 5685 5684 5683 5681 5679 5676 5674 5671 5668 5666 5661 5656 5656 5657 5657 5657 5657 5657 5657 5657 5657 5658 5658 5658 5658 5658 5658 5658 5658 5657 5657 5656 5656 5655 5655 5655
5688 5689 5688 5687 5686 5685 5684 5683 5682 5680 5679 5678 5676 5674 5671 5668 5664 5661 5655 5652 5651 5652 5652 5653 5653 5652 5652 5652 5652 5652 5652 5652 5652 5652 5651 5651 5651 5651 5651 5650 5649 5649 5648
5684 5684 5684 5684 5683 5683 5682 5681 5679 5677 5676 5675 5673 5671 5670 5669 5666 5662 5656 5651 5648 5647 5648 5648 5648 5648 5648 5648 5647 5647 5647 5646 5646 5645 5645 5644 5644 5644 5643 5643 5642 5642 5641
5682 5682 5681 5681 5680 5680 5679 5678 5676 5674 5673 5672 5671 5669 5667 5666 5664 5661 5657 5651 5646 5643 5643 5643 5643 5643 5643 5643 5643 5642 5641 5640 5639 5639 5638 5638 5637 5636 5636 5635 5634 5634 5633
5680 5679 5679 5678 5677 5676 5675 5674 5673 5671 5670 5668 5667 5666 5664 5663 5661 5659 5656 5654 5649 5642 5639 5638 5638 5638 5638 5638 5637 5636 5635 5634 5633 5632 5631 5631 5630 5629 5628 5627 5626 5626 5625
5678 5676 5675 5674 5673 5672 5671 5670 5669 5667 5666 5664 5663 5662 5660 5658 5656 5655 5653 5651 5649 5645 5637 5635 5633 5633 5633 5632 5631 5630 5629 5628 5627 5626 5625 5624 5623 5622 5621 5620 5619 5618 5617
5675 5673 5672 5670 5669 5668 5667 5666 5664 5663 5662 5660 5659 5658 5656 5654 5652 5651 5649 5647 5644 5642 5636 5631 5630 5629 5628 5627 5625 5624 5623 5622 5621 5620 5619 5618 5617 5616 5614 5613 5612 5610 5609
5671 5670 5669 5667 5665 5664 5663 5662 5660 5659 5657 5656 5655 5654 5652 5651 5648 5647 5645 5643 5640 5638 5634 5629 5626 5624 5623 5622 5620 5618 5617 5616 5615 5614 5613 5612 5611 5610 5609 5607 5606 5604 5602
5668 5667 5665 5664 5662 5661 5659 5658 5656 5655 5653 5652 5651 5650 5648 5647 5645 5642 5641 5639 5636 5634 5630 5626 5622 5620 5618 5616 5614 5613 5612 5611 5610 5609 5608 5607 5606 5605 5603 5601 5599 5597 5595
5664 5662 5661 5660 5659 5657 5655 5654 5652 5651 5649 5648 5647 5646 5645 5644 5642 5639 5637 5634 5632 5629 5625 5621 5618 5614 5612 5610 5609 5607 5605 5604 5604 5604 5603 5602 5600 5599 5597 5595 5593 5590 5588
5660 5658 5657 5656 5654 5653 5652 5650 5648 5647 5645 5644 5643 5642 5641 5641 5639 5637 5635 5631 5628 5624 5620 5616 5613 5610 5607 5605 5604 5602 5600 5598 5598 5597 5596 5595 5594 5593 5590 5588 5586 5584 5581
5655 5654 5652 5651 5650 5650 5649 5648 5646 5643 5641 5640 5638 5638 5637 5637 5636 5634 5632 5630 5626 5622 5617 5613 5609 5607 5605 5603 5601 5599 5595 5592 5591 5592 5589 5589 5587 5586 5584 5582 5580 5577 5574
5650 5649 5647 5646 5646 5645 5645 5643 5641 5639 5637 5635 5634 5633 5633 5632 5630 5628 5627 5625 5622 5620 5618 5614 5609 5606 5604 5602 5598 5594 5591 5588 5587 5586 5583 5582 5580 5579 5578 5576 5573 5570 5567
5645 5644 5642 5642 5641 5640 5640 5639 5636 5633 5631 5630 5630 5629 5628 5627 5625 5623 5621 5619 5617 5615 5613 5611 5609 5606 5604 5600 5596 5593 5589 5585 5582 5579 5576 5574 5574 5572 5571 5569 5566 5563 5559
5640 5639 5638 5637 5636 5635 5635 5634 5631 5628 5626 5625 5625 5624 5623 5622 5622 5620 5617 5613 5611 5609 5608 5607 5605 5602 5599 5596 5592 5587 5582 5579 5576 5574 5570 5567 5566 5563 5562 5560 5558 5554 5551
5637 5635 5633 5632 5631 5631 5630 5629 5626 5623 5620 5619 5619 5619 5619 5618 5617 5615 5612 5609 5606 5604 5602 5600 5598 5596 5594 5591 5587 5583 5579 5574 5570 5567 5565 5561 5558 5555 5554 5552 5548 5545 5541